[[{"header":{"parameterUnit":"m.s-1","parameterCategory":1,"la1":30.2991,"la2":30.254,"lo1":-89.0895,"lo2":-89.0444,"dy":0.0017,"dx":0.0017,"nx":28,"ny":28,"refTime":"2024-02-10T03:00:00:Z","depth":0,"parameterNumber":2,"parameterNumberName":"U-component_of_WINDS"},"data":[0,0,0,0,0,0,0,0,0,0,0,0,0,0,0,0,0,0,0,0,0,0,0,0,0,0,0,0,0,0,0,0,0,0,0,0,0,0,0,0,0,0,0,0,0,0,0,0,0,0,0,0,0,0,0,0,0,0,-1.0994,-1.0993,0,-1.0964,-1.0964,-1.0963,-1.0898,-1.0897,-1.0895,-1.0894,-1.0865,-1.0865,-1.0866,0,0,0,0,0,0,0,0,0,0,0,0,0,-1.0995,-1.0996,-1.0994,-1.0993,-1.0993,-1.0964,-1.0964,-1.0963,-1.0898,-1.0897,-1.0895,-1.0893,-1.0865,-1.0865,-1.0866,0,0,0,0,0,0,0,0,0,0,0,0,0,-1.0983,-1.0996,-1.0994,-1.0957,-1.0954,-1.0964,-1.0964,-1.0963,-1.0899,-1.0897,-1.0895,-1.0893,-1.0865,-1.0865,-1.0866,-1.091,0,0,-1.0868,-1.0868,0,0,0,0,0,0,0,0,-1.0984,-1.0983,-1.0963,-1.096,-1.0956,-1.0933,-1.0953,-1.0945,-1.0899,-1.092,-1.0894,-1.0892,-1.0889,-1.0888,-1.0886,-1.0909,-1.0907,-1.0868,-1.0868,-1.0869,-1.0869,0,0,0,0,0,0,0,-1.0985,-1.0984,-1.0982,-1.0963,-1.0958,-1.0942,-1.0938,-1.0951,-1.0916,-1.0918,-1.0913,-1.091,-1.0887,-1.0886,-1.0885,-1.0907,-1.0868,-1.0869,-1.0869,-1.0869,-1.0962,-1.0964,0,0,0,0,0,0,-1.0991,-1.0985,-1.0983,-1.0981,-1.0965,-1.0944,-1.0939,-1.0942,-1.0916,-1.091,-1.0912,-1.0907,-1.0886,-1.0885,-1.0884,-1.0932,-1.0869,-1.0869,-1.087,-1.096,-1.0963,-1.0965,0,0,0,0,0,0,-1.0991,-1.0991,-1.0984,-1.0982,-1.098,-1.0946,-1.0949,-1.0943,-1.0941,-1.0911,-1.0905,-1.0917,-1.0884,-1.0883,-1.0903,-1.093,-1.087,-1.087,-1.0958,-1.0961,-1.0964,-1.103,0,0,0,0,0,0,-1.0991,-1.0992,-1.1008,-1.0983,-1.098,-1.1004,-1.0951,-1.0943,-1.0943,-1.0936,-1.0915,-1.0909,-1.0882,-1.0903,-1.0904,-1.093,-1.0871,-1.0955,-1.0959,-1.0963,-1.1025,-1.1035,-1.1043,0,0,0,0,0,-1.0992,-1.1029,-1.1009,-1.1009,-1.1,-1.1006,-1.1004,-1.0972,-1.0945,-1.0961,-1.0941,-1.091,-1.0928,-1.0906,-1.0907,-1.0933,-1.0953,-1.0958,-1.0962,-1.1021,-1.1033,-1.1043,0,0,0,0,0,0,-1.1059,-1.1025,-1.1003,-1.1032,-1.1022,-1.0995,-1.1014,-1.0986,-1.0984,-1.0978,-1.0939,-1.0935,-1.096,-1.0949,-1.0925,-1.0974,-1.0935,-1.094,-1.098,-1.0991,-1.0999,-1.1001,-1.0871,0,0,0,0,0,-1.1077,-1.1084,-1.1054,-1.1084,-1.108,-1.1048,-1.1049,-1.1026,-1.1014,-1.1009,-1.0991,-1.0981,-1.0984,-1.0987,-1.0989,-1.1024,-1.1017,-1.1043,-1.1052,-1.1059,-1.1063,-1.1079,-1.109,-1.098,-1.098,-1.098,0,0,-1.1114,-1.1097,-1.1104,-1.1097,-1.1086,-1.1094,-1.1045,-1.1056,-1.1062,-1.1011,-1.1028,-1.1015,-1.1002,-1.1029,-1.1041,-1.1021,-1.1093,-1.1065,-1.1071,-1.1071,-1.1085,-1.1096,-1.1105,-1.0983,-1.0983,-1.0982,0,0,-1.1187,-1.1175,-1.1197,-1.1187,-1.1171,-1.115,-1.1156,-1.1132,-1.1121,-1.1138,-1.1099,-1.1106,-1.1113,-1.1104,-1.11,-1.1169,-1.1139,-1.1171,-1.1217,-1.1233,-1.1242,-1.1249,-1.1272,-1.128,-1.1176,-1.1176,-1.1176,0,-1.1235,-1.1246,-1.1212,-1.1225,-1.1222,-1.1177,-1.1198,-1.1191,-1.1177,-1.1176,-1.1154,-1.116,-1.1148,-1.1172,-1.1188,-1.1188,-1.1192,-1.1172,-1.1243,-1.125,-1.1257,-1.1278,-1.1287,-1.118,-1.1179,-1.1179,-1.1178,0,-1.1306,-1.1314,-1.1334,-1.132,-1.132,-1.1338,-1.1306,-1.131,-1.1286,-1.1267,-1.1284,-1.1268,-1.1265,-1.1269,-1.1247,-1.129,-1.1277,-1.125,-1.1211,-1.1272,-1.129,-1.1298,-1.1185,-1.1184,-1.1182,-1.1182,0,0,-1.1418,-1.1385,-1.1393,-1.1385,-1.1364,-1.137,-1.1386,-1.1381,-1.1385,-1.1377,-1.1388,-1.1395,-1.1369,-1.1365,-1.1341,-1.1356,-1.1409,-1.1326,-1.1325,-1.134,-1.1453,-1.1471,-1.1481,-1.139,-1.1391,-1.1392,-1.1453,0,-1.1484,-1.1507,-1.1476,-1.1506,-1.1513,-1.147,-1.1483,-1.1472,-1.1455,-1.1457,-1.1439,-1.1443,-1.141,-1.1407,-1.1419,-1.14,-1.143,-1.1395,-1.1398,-1.1399,-1.1401,-1.1492,-1.1512,-1.157,-1.146,-1.1462,-1.1463,0,-1.1563,-1.1558,-1.1588,-1.1564,-1.1566,-1.1578,-1.1571,-1.1575,-1.1561,-1.1548,-1.1543,-1.1515,-1.1528,-1.1491,-1.1508,-1.1485,-1.1484,-1.1475,-1.1477,-1.1474,-1.1433,-1.1489,-1.1587,-1.1595,-1.1474,-1.1473,-1.1472,0,-1.1639,-1.164,-1.1657,-1.1653,-1.1626,-1.1636,-1.1625,-1.1609,-1.1608,-1.1603,-1.1601,-1.1598,-1.1596,-1.1594,-1.1565,-1.1541,-1.1585,-1.1546,-1.1573,-1.1573,-1.1582,-1.1581,-1.1679,-1.1586,-1.1586,-1.1586,-1.1586,0,-1.1714,-1.1734,-1.1691,-1.1702,-1.1722,-1.1687,-1.1709,-1.1694,-1.168,-1.1687,-1.1651,-1.1658,-1.1621,-1.1624,-1.1602,-1.1618,-1.1618,-1.1607,-1.16,-1.1609,-1.161,-1.1606,-1.1601,-1.1588,-1.1588,-1.1587,-1.1587,0,-1.1802,-1.1774,-1.179,-1.1763,-1.1757,-1.1773,-1.175,-1.1759,-1.1739,-1.1748,-1.1749,-1.1718,-1.172,-1.1692,-1.1689,-1.1674,-1.1699,-1.1687,-1.1703,-1.1698,-1.1725,-1.1722,-1.1823,-1.1833,-1.1736,-1.1737,-1.1738,0,-1.185,-1.1864,-1.1838,-1.184,-1.1831,-1.1834,-1.1833,-1.1799,-1.1799,-1.1784,-1.1795,-1.1793,-1.179,-1.1795,-1.1773,-1.177,-1.1756,-1.1791,-1.1755,-1.1762,-1.1753,-1.1752,-1.1752,-1.1798,-1.1799,-1.18,-1.1801,0,-1.1938,-1.1924,-1.1923,-1.1917,-1.1916,-1.191,-1.1901,-1.1905,-1.1868,-1.187,-1.1871,-1.1868,-1.1864,-1.1863,-1.1856,-1.1845,-1.1816,-1.1813,-1.1818,-1.1826,-1.1834,-1.1827,-1.1721,-1.181,-1.1809,-1.1809,-1.1808,-1.1808,-1.2006,-1.2015,-1.1998,-1.1998,-1.1988,-1.1981,-1.1987,-1.1968,-1.1968,-1.1962,-1.1942,-1.1946,-1.1932,-1.1918,-1.191,-1.1913,-1.1895,-1.1904,-1.1905,-1.1908,-1.1911,-1.1836,-1.1912,-1.1911,-1.1911,-1.1911,-1.1911,0,-1.209,-1.2077,-1.2077,-1.2066,-1.2065,-1.2039,-1.2028,-1.203,-1.2033,-1.2022,-1.2019,-1.202,-1.2018,-1.1996,-1.1992,-1.1998,-1.1984,-1.1997,-1.1995,-1.1993,-1.1929,-1.1923,-1.2008,-1.2008,-1.2008,-1.2008,-1.2008,-1.2008,-1.2134,-1.2148,-1.2131,-1.214,-1.2127,-1.2129,-1.2125,-1.2118,-1.2108,-1.211,-1.2109,-1.2094,-1.2078,-1.2072,-1.2069,-1.2062,-1.2062,-1.2078,-1.2067,-1.2007,-1.1998,-1.1989,-1.1983,-1.2079,-1.2079,-1.2131,-1.2131,-1.2132]},{"header":{"parameterUnit":"m.s-1","parameterCategory":1,"la1":30.2991,"la2":30.254,"lo1":-89.0895,"lo2":-89.0444,"dy":0.0017,"dx":0.0017,"nx":28,"ny":28,"refTime":"2024-02-10T03:00:00:Z","depth":0,"parameterNumber":3,"parameterNumberName":"V-component_of_WINDS"},"data":[0,0,0,0,0,0,0,0,0,0,0,0,0,0,0,0,0,0,0,0,0,0,0,0,0,0,0,0,0,0,0,0,0,0,0,0,0,0,0,0,0,0,0,0,0,0,0,0,0,0,0,0,0,0,0,0,0,0,1.0788,1.0789,0,1.0864,1.0865,1.0866,1.0908,1.0908,1.0909,1.0909,1.0988,1.099,1.0992,0,0,0,0,0,0,0,0,0,0,0,0,0,1.0682,1.0684,1.0788,1.0789,1.079,1.0864,1.0865,1.0866,1.0908,1.0908,1.0909,1.0909,1.0987,1.099,1.0992,0,0,0,0,0,0,0,0,0,0,0,0,0,1.074,1.0684,1.0788,1.082,1.0823,1.0864,1.0865,1.0867,1.0908,1.0908,1.0909,1.0909,1.0987,1.099,1.0993,1.1008,0,0,1.1002,1.1003,0,0,0,0,0,0,0,0,1.0737,1.0744,1.0814,1.0818,1.0822,1.0877,1.0857,1.0914,1.0908,1.0876,1.0909,1.0909,1.0951,1.0957,1.0971,1.1011,1.1015,1.1002,1.1004,1.1005,1.1006,0,0,0,0,0,0,0,1.0733,1.0741,1.0818,1.0815,1.082,1.0832,1.084,1.0868,1.0912,1.0879,1.0882,1.0891,1.0953,1.0968,1.0973,1.1016,1.1002,1.1005,1.1006,1.1008,1.1076,1.1076,0,0,0,0,0,0,1.0723,1.0737,1.0816,1.0821,1.0779,1.0833,1.0843,1.0859,1.0912,1.092,1.089,1.0892,1.0963,1.097,1.0976,1.1,1.1005,1.1008,1.101,1.1076,1.1076,1.1076,0,0,0,0,0,0,1.0721,1.073,1.0813,1.078,1.0791,1.0835,1.0853,1.0861,1.0875,1.092,1.0928,1.0897,1.0963,1.0972,1.1,1.1003,1.1009,1.1012,1.1076,1.1076,1.1076,1.1045,0,0,0,0,0,0,1.0718,1.0729,1.0734,1.078,1.0793,1.0834,1.0853,1.0862,1.088,1.0884,1.0929,1.0936,1.0964,1.0995,1.1003,1.1007,1.1014,1.1076,1.1076,1.1076,1.1046,1.1044,1.1042,0,0,0,0,0,1.0714,1.0722,1.0734,1.0743,1.08,1.0834,1.0842,1.0873,1.088,1.0887,1.0916,1.0935,1.1001,1.0998,1.1007,1.1012,1.1076,1.1076,1.1076,1.1047,1.1044,1.1042,0,0,0,0,0,0,1.0675,1.0728,1.0742,1.0765,1.0795,1.0841,1.085,1.0869,1.0898,1.09,1.0938,1.0948,1.0973,1.0995,1.0991,1.1031,1.1041,1.1043,1.1015,1.1013,1.1011,1.1006,1.1017,0,0,0,0,0,1.0669,1.0691,1.0737,1.0753,1.0767,1.0806,1.0822,1.0844,1.0876,1.0889,1.092,1.0952,1.098,1.0998,1.1026,1.1049,1.1061,1.1057,1.1055,1.1054,1.1055,1.1072,1.1071,1.1076,1.1076,1.1076,0,0,1.0657,1.0689,1.0701,1.0746,1.0772,1.0796,1.0816,1.084,1.0859,1.0893,1.0922,1.0946,1.0984,1.1011,1.1024,1.103,1.1056,1.1054,1.1052,1.1054,1.1072,1.1071,1.107,1.1076,1.1076,1.1076,0,0,1.0648,1.0673,1.069,1.0716,1.0755,1.0781,1.0785,1.083,1.0847,1.0877,1.0904,1.0927,1.0974,1.1001,1.102,1.1024,1.1044,1.1032,1.1022,1.1038,1.1038,1.1038,1.1041,1.1041,1.1033,1.1033,1.1033,0,1.0628,1.0664,1.0697,1.072,1.074,1.0773,1.0792,1.0815,1.0861,1.0875,1.0881,1.0943,1.097,1.1005,1.1006,1.102,1.1028,1.1027,1.1035,1.1035,1.1036,1.1039,1.104,1.1032,1.1032,1.1032,1.1032,0,1.0639,1.0664,1.0673,1.0717,1.0739,1.0759,1.0797,1.0815,1.0835,1.0861,1.0893,1.0927,1.0964,1.0974,1.0994,1.1012,1.1015,1.1027,1.1038,1.1033,1.1037,1.1038,1.103,1.103,1.1031,1.1031,0,0,1.0606,1.067,1.0673,1.0694,1.0741,1.0761,1.0784,1.0821,1.0836,1.0868,1.0889,1.093,1.0942,1.0965,1.0988,1.1002,1.1005,1.1013,1.1015,1.1012,1.103,1.1021,1.1022,1.1018,1.1019,1.1019,1.1028,0,1.0604,1.0647,1.0678,1.0709,1.0734,1.0767,1.0788,1.0819,1.0845,1.087,1.0899,1.0928,1.0941,1.0956,1.0971,1.1002,1.101,1.1001,1.1041,1.1042,1.1031,1.1024,1.1014,1.102,1.1029,1.103,1.103,0,1.0608,1.0639,1.0672,1.0718,1.073,1.0748,1.0785,1.0809,1.0846,1.0864,1.089,1.0915,1.0943,1.0951,1.0991,1.0985,1.1003,1.1021,1.1022,1.1027,1.1036,1.103,1.1023,1.1024,1.1032,1.1032,1.1032,0,1.0583,1.0632,1.066,1.0677,1.0731,1.0743,1.0766,1.0804,1.0825,1.0857,1.0872,1.0907,1.0927,1.0955,1.0989,1.0992,1.1027,1.1037,1.1044,1.1043,1.105,1.1049,1.1046,1.106,1.106,1.106,1.1059,0,1.0578,1.0598,1.0649,1.0666,1.069,1.0727,1.075,1.0776,1.081,1.0833,1.0864,1.0886,1.0929,1.0957,1.0984,1.1014,1.1023,1.1039,1.1046,1.1037,1.1035,1.105,1.1051,1.106,1.106,1.106,1.106,0,1.0554,1.0589,1.0621,1.067,1.0683,1.0699,1.0741,1.076,1.0788,1.0818,1.0827,1.0871,1.0905,1.0943,1.0989,1.1008,1.1037,1.1047,1.1024,1.1029,1.1034,1.1033,1.1041,1.1045,1.1054,1.1054,1.1054,0,1.0549,1.0565,1.0616,1.0634,1.0657,1.0685,1.0707,1.0745,1.0766,1.0811,1.0825,1.0862,1.0893,1.0947,1.0984,1.102,1.1032,1.1032,1.1037,1.1028,1.1034,1.1033,1.1036,1.103,1.103,1.103,1.103,0,1.0537,1.0554,1.0584,1.0621,1.0646,1.0676,1.0708,1.0721,1.0766,1.0789,1.0824,1.0849,1.0897,1.0934,1.0976,1.1001,1.1024,1.1028,1.1032,1.1022,1.101,1.1018,1.1021,1.1027,1.1028,1.1028,1.1028,1.1028,1.0524,1.0541,1.058,1.0613,1.0641,1.067,1.0691,1.0722,1.0752,1.0794,1.0815,1.0851,1.0891,1.0949,1.0974,1.1004,1.1011,1.1016,1.1017,1.1018,1.1016,1.1004,1.1012,1.1012,1.1012,1.1012,1.1012,0,1.0515,1.0542,1.0572,1.0616,1.0643,1.0661,1.0698,1.0719,1.075,1.0785,1.0816,1.0858,1.0895,1.0935,1.0975,1.0991,1.1003,1.1,1.1,1.1006,1.1007,1.1001,1.099,1.099,1.099,1.099,1.099,1.099,1.0514,1.0544,1.0566,1.0611,1.0639,1.0674,1.0694,1.0722,1.0751,1.0796,1.0827,1.0853,1.0891,1.0934,1.0969,1.098,1.0994,1.0989,1.1003,1.1004,1.1005,1.1007,1.1001,1.0991,1.0991,1.0999,1.0999,1.0999]}]]